Weather History for KIZG - October, 2014

Change the Weather History Date:

Wednesday, October 8, 2014

  Actual Average Record
Temperature  
Mean Temperature 64 °F -  
Max Temperature 72 °F 60 °F 82 °F (2011)
Min Temperature 55 °F 34 °F 24 °F (1999)
Degree Days  
Heating Degree Days 2    
Growing Degree Days 14 (Base 50)    
Moisture  
Dew Point 50 °F    
Average Humidity 69    
Maximum Humidity 97    
Minimum Humidity 39    
Precipitation  
Precipitation 0.19 in - - ()
Sea Level Pressure  
Sea Level Pressure 29.75 in    
Wind  
Wind Speed 5 mph (SSW)    
Max Wind Speed 15 mph    
Max Gust Speed 26 mph    
Visibility 10 miles    
Events Rain    
Averages and records for this station are not official NWS values.
T = Trace of Precipitation, MM = Missing Value Source: NWS Daily Summary

Daily Weather History Graph

Daily Weather History Graph

Search for Another Location

Airport or City:

Trip Planner

Search our weather history database for the weather conditions in past years. The results will help you decide how hot, cold, wet, or windy it might be!

Date:

Astronomy

Oct. 08, 2014 Rise Set
Actual Time 6:49 AM EDT 6:12 PM EDT
Civil Twilight 6:20 AM EDT 6:40 PM EDT
Nautical Twilight 5:47 AM EDT 7:14 PM EDT
Astronomical Twilight 5:13 AM EDT 7:47 PM EDT
Moon 6:23 PM EDT (10/8) 6:53 AM EDT (10/8)
Length of Visible Light 12h 20m
Length of Day
11h 22m
Full, 100% of the Moon is Illuminated
Oct 8
Full
Oct 15
Last Quarter
Oct 23
New
Oct 30
First Quarter
Nov 6
Full

Hourly Weather History & Observations

Time (EDT) Temp. Dew Point Humidity Pressure Visibility Wind Dir Wind Speed Gust Speed Precip Events Conditions
12:54 AM 60.1 °F 55.0 °F 83% 29.96 in 10.0 mi Calm Calm - N/A   Mostly Cloudy
1:54 AM 60.1 °F 55.0 °F 83% 29.95 in 10.0 mi Calm Calm - N/A   Overcast
2:54 AM 59.0 °F 55.0 °F 87% 29.91 in 10.0 mi SE 3.5 mph - 0.00 in Rain Light Rain
3:54 AM 57.9 °F 57.0 °F 97% 29.87 in 6.0 mi Calm Calm - 0.06 in Rain Rain
4:54 AM 59.0 °F 57.0 °F 93% 29.82 in 10.0 mi SE 3.5 mph - 0.03 in Rain Light Rain
5:54 AM 60.1 °F 57.9 °F 93% 29.79 in 10.0 mi SE 3.5 mph - 0.03 in Rain Light Rain
6:29 AM 59.0 °F 57.9 °F 96% 29.75 in 7.0 mi ESE 4.6 mph - 0.01 in Rain Light Rain
6:54 AM 60.1 °F 57.9 °F 93% 29.71 in 10.0 mi ESE 5.8 mph - 0.01 in   Overcast
7:07 AM 60.1 °F 59.0 °F 96% 29.70 in 5.0 mi SE 8.1 mph - 0.02 in Rain Rain
7:31 AM 62.1 °F 59.0 °F 90% 29.70 in 10.0 mi South 13.8 mph 24.2 mph 0.05 in   Mostly Cloudy
7:54 AM 62.1 °F 59.0 °F 90% 29.71 in 10.0 mi South 8.1 mph 21.9 mph 0.05 in Rain Light Rain
8:54 AM 63.0 °F 57.0 °F 81% 29.71 in 10.0 mi South 5.8 mph - 0.00 in   Overcast
9:17 AM 64.9 °F 57.9 °F 78% 29.71 in 10.0 mi South 8.1 mph 17.3 mph N/A   Mostly Cloudy
9:54 AM 63.0 °F 55.9 °F 78% 29.70 in 8.0 mi South 11.5 mph 19.6 mph 0.01 in Rain Light Rain
10:54 AM 66.0 °F 55.0 °F 68% 29.69 in 10.0 mi SSW 9.2 mph 17.3 mph 0.00 in   Partly Cloudy
11:54 AM 70.0 °F 52.0 °F 53% 29.68 in 10.0 mi SW 9.2 mph 20.7 mph N/A   Mostly Cloudy
12:54 PM 68.0 °F 48.9 °F 50% 29.67 in 10.0 mi WSW 13.8 mph 24.2 mph N/A   Mostly Cloudy
1:54 PM 69.1 °F 46.0 °F 44% 29.65 in 10.0 mi SW 13.8 mph 26.5 mph N/A   Clear
2:54 PM 70.0 °F 44.1 °F 39% 29.65 in 10.0 mi SW 15.0 mph 25.3 mph N/A   Mostly Cloudy
3:54 PM 66.0 °F 43.0 °F 43% 29.66 in 10.0 mi SW 10.4 mph 21.9 mph N/A   Scattered Clouds
4:54 PM 66.0 °F 43.0 °F 43% 29.66 in 10.0 mi SW 11.5 mph 20.7 mph N/A   Clear
5:54 PM 63.0 °F 42.1 °F 46% 29.68 in 10.0 mi SW 9.2 mph - N/A   Clear
6:54 PM 57.9 °F 43.0 °F 58% 29.70 in 10.0 mi SSW 4.6 mph - N/A   Clear
7:54 PM 61.0 °F 41.0 °F 48% 29.73 in 10.0 mi WSW 12.7 mph - 0.00 in Rain Light Rain
8:54 PM 57.9 °F 43.0 °F 58% 29.75 in 10.0 mi West 3.5 mph - 0.00 in   Overcast
9:54 PM 57.0 °F 41.0 °F 55% 29.78 in 10.0 mi WSW 4.6 mph 19.6 mph N/A   Mostly Cloudy
10:54 PM 57.0 °F 34.0 °F 42% 29.79 in 10.0 mi West 9.2 mph 20.7 mph N/A   Clear
11:54 PM 55.0 °F 32.0 °F 42% 29.80 in 10.0 mi West 8.1 mph 18.4 mph N/A   Clear